Wind_Gust
20 21 19 18 21 26 25 21 19 21 19 19 20 20 23 22 22 21 23 25 24 27 26 28 26 25 24 26 27 28 28 31 31 32 35 31 30 24 22 25 24 25 21 21 26 23 23 23 22 20 19 19 18 18 18 19 20 22 26 21 25 24 23 22 21 23 24 22 22 21 21 22 20 21 18 16 17 15 17 18 18 20 17 16 14 15
20 27 21 22 28 23 20 23 26 24 22 22 22 21 23 20 21 19 24 21 22 26 23 24 26 26 25 26 30 30 30 31 31 31 29 32 31 25 22 24 24 18 18 24 18 21 21 21 19 19 20 21 23 18 19 22 23 24 25 24 22 21 22 22 24 23 21 23 26 26 25 22 20 19 19 18 18 17 17 18 17 20 17 17 15 16
21 26 24 20 21 18 21 24 25 24 22 20 22 20 21 21 19 19 23 23 24 20 24 20 23 26 26 26 28 33 30 30 31 30 26 27 28 28 26 25 21 20 16 24 23 23 24 22 22 22 20 21 25 23 21 23 23 23 23 24 23 23 23 23 22 21 22 20 19 23 23 21 22 19 17 16 14 13 15 16 18 20 19 18 17 16
25 20 22 24 24 22 22 21 19 21 20 21 19 18 17 17 18 20 17 14 18 25 21 18 24 27 25 26 31 32 31 31 31 36 35 23 28 30 24 22 24 26 25 24 27 26 25 26 24 20 20 22 21 25 25 21 24 24 22 21 26 24 22 24 24 25 25 26 26 24 22 18 17 22 17 13 12 13 14 17 17 19 19 19 17 17
18 19 26 23 20 19 25 21 19 17 17 19 22 20 21 19 20 20 18 23 22 21 22 22 27 28 26 27 30 30 29 29 31 31 31 30 24 28 26 23 21 20 24 26 24 25 25 26 27 27 25 24 25 25 25 24 27 26 27 26 25 24 27 24 26 28 25 22 19 18 14 13 14 10 14 15 16 16 14 17 17 21 19 19 17 18
27 23 24 20 18 23 22 21 17 17 17 16 15 17 18 20 23 23 20 17 20 20 18 22 31 29 20 25 31 26 29 32 29 28 27 28 26 26 23 19 21 21 27 28 28 27 29 26 20 20 23 24 23 25 25 26 28 25 23 22 23 22 24 25 22 21 21 23 24 22 22 20 20 21 20 22 24 22 20 25 22 18 20 19 17 18
16 13 21 18 19 20 19 16 13 17 18 13 18 18 16 23 23 20 21 19 16 18 16 16 28 30 17 24 27 28 28 29 27 27 31 32 26 24 26 28 25 26 23 28 25 23 22 20 21 19 20 21 22 21 21 21 23 21 21 25 24 22 22 22 23 22 21 21 23 24 27 26 26 27 24 22 20 21 22 17 18 18 18 19 19 18
13 12 14 16 19 20 18 16 14 13 12 18 15 15 19 22 22 23 27 25 21 15 20 20 27 27 23 20 22 25 30 30 31 29 27 32 34 35 33 28 33 25 23 29 26 27 27 23 24 24 21 20 23 21 18 19 19 19 21 23 27 25 24 19 22 25 23 23 22 20 21 21 20 23 26 25 22 18 16 16 19 17 19 18 18 19
15 17 15 14 13 17 16 15 13 14 20 16 14 18 19 20 19 27 24 22 19 18 20 15 18 29 24 18 25 34 38 34 34 30 27 30 35 34 33 35 30 33 35 31 27 26 25 24 23 21 18 15 14 11 12 12 14 17 16 23 26 25 24 24 22 23 22 21 22 22 21 19 20 20 20 20 16 19 18 15 18 17 18 18 17 19
16 13 14 16 16 11 12 15 12 11 16 10 17 26 27 24 23 24 26 24 19 15 18 17 14 25 15 19 28 30 25 24 28 30 29 25 29 39 39 30 35 33 31 34 31 24 22 19 18 16 16 15 12 11 11 9 10 10 11 20 26 25 24 24 25 27 26 24 23 22 19 20 21 18 18 19 18 18 19 17 19 17 18 19 18 19
27 25 19 16 14 11 16 14 12 10 14 14 18 26 29 27 19 16 19 25 19 20 16 16 17 22 12 16 15 17 19 24 37 33 25 24 37 34 32 31 34 32 28 29 25 21 20 21 21 19 19 16 17 18 16 13 12 11 9 13 24 25 24 25 27 26 28 27 26 25 25 24 26 28 26 23 23 19 18 19 20 19 20 19 18 19
25 15 20 23 17 19 11 12 13 14 15 13 16 22 25 16 14 16 15 20 20 15 12 16 19 15 17 12 18 23 24 27 31 30 30 30 29 29 26 32 33 30 30 27 26 24 22 22 20 17 16 17 17 19 18 18 13 12 12 14 16 22 21 22 23 26 27 27 27 26 27 28 29 26 26 25 25 25 24 23 23 22 18 19 17 18
21 11 21 22 14 17 17 14 12 13 12 12 12 14 15 11 14 14 14 16 15 11 12 18 20 19 15 11 19 21 17 22 28 27 31 27 29 25 28 29 30 29 28 28 22 21 21 20 19 17 14 13 13 13 13 18 19 22 22 14 13 22 20 26 24 26 23 25 26 25 25 24 24 23 22 25 25 23 25 25 21 21 21 22 23 21
12 13 17 15 16 24 22 17 14 14 11 12 12 10 9 11 8 8 15 11 13 19 21 17 14 21 16 12 15 18 23 21 23 24 25 25 25 26 26 25 26 26 24 21 23 21 21 17 17 16 13 13 12 10 11 12 13 11 14 16 18 19 21 22 23 20 24 27 28 26 27 25 25 29 26 26 24 24 22 23 24 24 24 24 26 25
10 12 14 16 11 19 24 16 15 17 17 14 16 13 13 16 18 11 11 7 9 11 14 18 12 17 15 14 22 23 24 22 22 21 22 22 24 23 25 25 23 20 20 23 23 22 17 16 17 14 15 12 14 16 14 14 10 13 17 21 14 16 17 20 23 22 18 21 18 22 26 24 27 28 31 30 26 24 25 23 24 22 20 20 20 22
16 19 15 16 14 15 18 16 15 21 19 11 17 15 11 16 13 15 14 14 12 14 11 12 16 15 18 16 24 26 21 24 18 17 19 24 24 23 25 23 21 21 21 21 20 21 19 15 15 17 14 13 8 10 10 14 12 11 17 17 13 14 16 16 16 23 27 23 19 23 21 20 21 24 25 28 28 25 24 27 25 24 24 23 21 19
13 9 16 19 18 13 14 17 18 15 15 13 16 11 11 19 20 19 16 20 8 9 4 11 22 28 27 20 22 21 23 22 22 24 25 23 22 21 22 19 19 20 20 18 20 20 21 22 21 19 17 16 12 6 8 9 16 19 23 20 17 14 13 15 15 16 20 26 28 29 29 23 21 21 22 25 29 28 28 24 22 23 28 26 22 20
9 17 16 13 13 15 16 18 19 17 15 17 16 13 18 24 23 19 10 13 7 7 9 16 19 15 16 15 20 23 22 22 21 23 22 21 21 21 19 18 18 18 17 18 19 19 19 19 20 20 19 15 15 13 10 6 10 16 16 16 16 13 14 13 16 14 17 21 27 25 22 23 29 32 31 28 28 27 25 28 27 25 23 25 24 23
15 17 8 18 20 15 18 20 12 16 16 17 19 19 18 16 16 11 10 9 8 8 10 13 18 19 15 16 19 21 22 22 20 21 22 22 20 18 17 18 18 18 19 21 19 19 19 19 20 21 21 21 18 18 19 16 12 10 11 14 12 15 17 18 16 17 17 15 20 22 22 20 18 19 20 20 25 24 23 22 28 27 28 26 25 26
9 7 8 16 22 15 17 20 11 19 17 16 18 20 22 17 13 11 11 14 15 11 12 15 17 12 15 14 18 19 21 20 19 19 20 21 20 17 16 17 18 18 18 18 18 17 17 17 16 18 18 20 19 17 17 14 15 13 11 13 15 9 11 12 14 16 16 20 17 18 17 16 18 19 20 21 20 17 20 24 23 25 22 25 25 25
7 7 10 12 15 14 12 15 14 13 17 19 17 23 23 15 16 22 18 20 13 10 13 15 19 16 11 16 16 21 21 18 18 19 17 19 19 19 19 18 17 18 17 15 16 17 18 18 18 19 18 19 19 19 20 19 18 13 14 12 11 12 13 12 15 15 16 16 18 18 19 18 18 20 21 20 19 18 19 17 17 19 19 23 27 26
13 8 13 16 11 14 11 10 15 15 14 13 14 11 15 20 19 18 21 23 18 17 12 14 18 20 16 15 14 17 18 18 20 19 17 17 19 18 18 17 16 18 19 15 16 17 17 17 19 20 21 20 21 20 20 20 19 18 17 15 14 16 13 11 14 15 15 15 16 18 19 19 15 16 16 18 18 19 20 19 19 19 17 18 25 28
10 10 13 13 11 13 13 14 20 18 13 19 12 12 17 11 11 8 12 18 20 19 23 19 21 11 13 15 18 17 19 19 19 21 20 19 18 18 17 17 17 17 18 20 20 20 18 17 17 18 20 20 19 18 18 17 17 17 16 17 14 14 16 12 13 14 14 14 14 16 17 16 16 17 15 16 18 19 21 20 19 17 19 20 24 29
8 12 13 12 12 14 16 10 16 21 15 12 14 16 15 15 16 13 13 13 16 20 19 16 11 14 16 18 17 19 19 19 21 20 19 18 17 20 19 20 16 17 16 18 19 19 19 17 17 18 18 21 20 19 19 17 17 17 17 17 16 16 16 16 14 13 13 14 15 15 15 16 17 16 18 19 19 19 21 20 19 18 20 21 24 32
13 8 12 13 8 8 10 10 12 16 20 18 18 17 16 17 15 16 11 8 12 12 22 20 13 11 12 13 18 20 21 22 21 22 20 20 19 19 20 20 21 20 20 19 20 20 20 21 21 22 21 20 21 21 18 17 18 17 17 16 17 17 15 16 16 16 14 11 14 14 15 16 16 16 17 18 18 18 19 20 21 20 21 20 26 29
12 11 15 15 13 13 9 10 11 17 16 11 15 15 17 17 19 17 9 12 10 13 17 14 13 11 11 14 19 21 21 20 20 20 21 20 19 22 21 20 19 19 19 19 20 21 21 20 20 20 21 22 21 23 22 20 18 16 17 17 15 16 18 18 18 17 15 13 11 11 14 15 15 17 19 20 19 19 19 19 19 19 16 20 25 31
10 10 12 10 11 12 11 11 8 6 10 15 11 16 19 18 18 15 10 14 14 11 15 15 14 12 13 21 22 23 23 23 23 23 24 24 22 21 20 20 22 22 24 24 23 23 22 21 21 21 21 22 22 20 22 22 22 18 16 17 17 17 17 18 17 19 18 15 13 13 11 15 17 18 20 20 21 19 18 18 19 20 21 21 24 32
10 10 13 13 13 13 13 13 10 8 8 13 15 17 16 17 18 17 18 14 14 17 13 17 14 12 16 20 21 23 23 23 22 23 23 24 22 23 24 24 22 24 24 26 24 24 24 23 23 22 21 22 22 22 22 22 21 21 18 17 17 17 18 19 19 17 16 16 14 12 13 12 13 18 20 19 19 19 18 18 19 20 20 18 20 29
10 12 10 11 13 12 10 10 9 12 12 13 15 15 15 15 16 18 16 15 13 13 12 13 13 12 14 17 19 19 22 22 22 22 22 22 22 23 24 25 26 27 27 26 25 25 25 25 23 24 22 24 22 21 20 21 23 19 18 18 17 17 19 19 17 17 17 16 15 14 13 12 13 14 18 18 15 16 19 20 19 20 22 22 29 34
13 10 8 8 10 9 8 8 8 11 12 14 16 15 15 14 14 13 13 12 13 12 12 13 12 10 11 15 16 17 17 19 18 18 19 22 22 23 24 24 26 28 28 28 29 28 26 26 24 23 22 22 23 24 24 22 21 21 20 18 17 17 18 18 19 19 17 15 15 14 15 17 15 16 15 14 16 19 19 18 18 17 19 19 26 26
14 7 9 9 5 8 7 9 7 6 10 16 14 15 15 13 12 11 11 12 10 12 14 12 10 10 13 13 14 14 15 16 18 20 21 20 21 23 24 25 27 27 28 28 28 27 28 27 27 26 24 23 24 24 24 23 23 22 21 20 18 18 18 19 20 20 18 17 17 16 16 17 17 17 18 17 19 21 19 19 19 22 27 27 27 24
9 7 8 8 6 7 11 12 12 7 7 11 14 14 15 12 11 14 13 13 11 10 11 11 13 15 15 15 15 16 17 18 19 21 21 20 20 23 24 26 26 27 28 27 26 28 28 28 28 27 26 25 24 24 25 24 24 25 22 20 21 21 19 19 18 19 20 19 17 17 19 19 18 19 20 17 19 22 27 29 29 30 25 24 25 29
8 13 9 7 7 7 10 14 12 10 9 7 10 11 12 10 10 10 11 11 11 8 8 13 11 11 14 16 18 18 18 19 20 21 22 20 20 21 23 26 28 28 26 25 25 27 28 28 27 26 27 26 27 26 26 26 26 25 24 23 23 22 20 21 19 19 21 21 20 20 18 18 19 21 21 21 18 18 21 26 28 28 26 27 28 24
10 12 10 9 6 6 9 12 10 10 9 12 11 12 10 11 12 9 9 10 9 9 8 10 10 9 11 13 16 18 19 21 22 21 19 18 19 20 24 26 27 27 25 24 24 27 27 29 29 28 26 26 25 25 24 24 25 24 23 23 22 19 19 20 20 19 21 21 22 21 21 21 21 22 21 20 21 18 18 23 25 24 23 22 24 29
8 9 5 9 6 7 9 11 10 6 11 9 9 10 8 11 10 13 10 9 8 10 10 13 9 8 9 9 11 14 16 19 20 19 16 15 17 20 24 26 25 26 26 25 22 23 25 29 28 28 28 25 24 24 24 24 22 21 26 24 23 21 21 21 22 22 20 21 21 20 21 24 24 25 23 22 21 22 21 20 23 23 23 22 24 27
9 9 6 7 9 8 11 14 6 8 7 12 11 9 8 11 9 10 5 6 7 12 13 13 11 8 10 11 13 13 15 18 19 17 9 14 17 20 24 25 25 26 29 26 23 22 24 25 27 29 30 29 26 25 23 23 21 22 23 23 24 23 22 21 22 24 22 23 23 25 25 24 24 24 24 24 23 22 25 22 21 22 21 20 21 21
11 11 12 12 11 9 8 13 13 15 11 7 9 10 14 12 11 11 7 8 7 12 14 16 12 13 12 12 12 14 16 18 16 13 12 20 21 22 23 24 25 27 26 25 24 24 24 25 26 25 25 26 27 27 25 23 24 25 24 24 24 23 24 24 25 25 24 23 25 26 28 27 26 24 22 23 24 25 25 25 23 22 20 21 21 20
10 15 12 8 11 12 11 13 11 13 11 13 12 9 7 10 11 9 11 6 12 14 15 19 15 13 14 12 13 14 14 16 14 12 15 22 22 23 23 20 22 23 25 27 25 24 25 27 30 31 28 28 26 24 26 25 27 26 25 24 24 25 23 24 27 28 27 28 27 27 26 26 27 26 26 26 28 27 26 25 25 23 25 23 22 22
13 13 14 14 12 7 10 12 10 10 14 11 11 9 7 14 11 9 10 8 11 10 12 16 13 13 13 15 17 16 15 13 15 18 21 25 25 23 24 23 25 26 27 28 27 28 29 31 31 30 27 26 29 27 24 24 24 25 26 26 24 23 25 24 27 27 30 29 29 30 31 30 29 30 29 28 29 28 27 26 28 25 24 26 23 24
11 10 9 14 10 11 8 9 7 11 9 9 8 7 10 11 9 11 10 11 10 10 11 14 10 10 13 15 15 15 16 16 19 21 21 22 20 19 21 23 24 26 27 28 29 26 27 31 35 34 30 27 26 25 25 26 27 25 26 26 24 24 25 25 26 28 29 31 32 32 34 33 33 32 31 30 29 29 29 27 26 29 26 26 25 25
8 9 11 11 10 6 10 9 14 12 9 9 11 8 12 14 12 8 12 12 9 10 12 11 13 13 14 14 15 17 15 16 16 16 17 20 21 22 21 20 22 23 26 27 27 19 25 26 29 33 31 28 28 28 28 27 25 24 26 26 27 26 27 28 27 29 31 32 32 34 36 34 34 33 32 30 30 30 30 28 28 26 28 26 29 30
9 9 8 8 7 13 13 12 11 11 11 11 11 10 9 7 10 6 12 8 9 10 9 13 13 13 13 13 13 14 17 17 16 15 18 20 20 18 17 20 22 23 23 23 20 22 23 22 26 32 28 25 26 27 25 29 29 28 28 28 28 25 26 29 29 29 30 34 38 35 35 35 35 34 33 31 29 29 29 29 28 29 28 29 26 31
14 9 9 7 11 9 11 11 10 8 8 7 8 11 9 10 13 11 7 6 7 8 10 11 11 11 11 13 13 14 15 15 14 16 17 17 16 18 18 19 20 23 24 25 26 26 25 24 27 29 26 27 27 27 27 27 26 25 24 28 29 29 28 26 26 30 33 34 34 36 36 35 34 35 33 32 29 28 29 28 29 28 28 30 29 29
13 10 15 10 10 12 10 12 9 14 16 10 13 11 14 12 13 10 10 10 9 9 11 10 9 10 10 11 13 14 15 14 15 16 14 15 17 17 17 16 18 21 23 23 24 25 22 21 22 27 27 27 25 27 26 27 30 27 27 30 28 26 25 24 24 26 31 32 34 35 34 33 34 34 32 33 32 30 30 29 28 28 29 30 32 30
8 12 13 11 13 11 11 12 13 12 14 12 13 9 13 10 9 12 9 9 9 9 10 11 11 11 12 14 13 13 15 14 16 16 15 12 15 19 19 20 19 19 19 19 22 23 24 24 22 21 25 27 26 24 25 23 25 25 27 28 28 28 27 26 25 26 28 31 33 33 33 31 32 32 30 31 30 30 29 27 30 34 30 30 33 32
7 7 7 11 7 8 8 9 11 8 10 9 8 13 14 9 7 9 9 10 8 9 10 10 9 11 13 13 16 15 16 17 17 17 18 18 17 16 16 19 19 21 21 19 19 23 26 28 22 24 30 30 27 26 23 23 23 25 26 28 28 28 27 26 25 26 27 31 30 31 31 32 32 31 31 31 30 27 27 27 29 33 32 31 34 34
6 8 7 13 8 9 10 10 10 13 11 10 12 10 11 11 12 10 9 10 9 8 8 8 10 11 11 12 13 13 15 16 16 18 18 20 20 18 18 19 19 20 19 18 17 19 23 27 32 31 31 29 28 28 27 23 22 22 24 26 32 30 27 26 27 28 30 33 30 28 28 29 29 32 33 30 30 28 28 28 31 35 34 32 34 35
10 11 11 11 10 12 10 15 12 15 14 12 15 14 12 13 12 10 9 10 10 9 9 10 10 11 11 14 14 15 15 16 16 18 20 20 19 17 19 20 21 18 16 17 17 17 19 22 27 26 27 29 28 28 27 26 25 26 26 27 28 28 30 27 27 30 30 30 28 27 27 28 22 29 29 30 29 30 30 30 31 33 34 33 33 33
11 7 10 9 12 9 13 12 10 9 9 12 10 8 12 15 12 10 8 9 9 9 6 7 7 11 12 13 13 14 15 17 18 18 20 18 19 19 18 20 21 20 18 20 18 17 20 19 21 22 25 27 28 28 29 27 27 26 28 28 28 28 32 31 27 27 28 29 28 27 24 26 28 28 28 29 29 31 30 31 32 34 34 32 31 30
12 13 11 11 12 8 10 14 11 10 8 8 12 13 12 12 13 10 8 11 10 10 9 10 11 10 11 11 14 14 16 18 18 19 19 19 18 18 19 20 21 23 19 17 16 19 20 18 18 20 21 23 24 27 28 27 28 28 30 29 26 27 27 29 28 28 28 28 28 28 30 29 29 27 27 27 28 29 32 22 26 30 34 34 26 30
11 11 11 13 11 10 10 9 8 10 11 10 12 13 11 11 14 12 11 10 9 10 10 10 11 12 12 13 13 14 16 17 17 19 20 18 18 17 18 20 23 21 21 19 18 19 20 20 19 19 19 21 22 24 27 27 29 31 34 30 27 27 27 31 28 28 27 26 27 30 31 28 27 27 27 27 27 28 28 32 33 28 35 35 36 38
Wind_Speed
1 2 0 4 5 3 3 3 3 5 4 5 5 3 4 4 6 4 6 7 4 2 1 1 3 5 6 6 10 9 9 6 8 8 7 7 6 6 4 8 10 9 11 11 12 12 11 10 10 10 10 10 9 9 10 11 12 13 14 13 13 11 11 10 8 7 12 11 6 4 7 6 8 9 9 8 7 8 8 9 9 9 8 8 7 6
5 4 4 5 7 3 4 4 4 7 7 7 5 4 7 4 6 5 4 6 6 5 3 3 4 2 4 4 4 4 4 6 7 9 9 8 9 7 6 5 10 10 5 4 4 5 6 7 9 10 10 11 13 11 12 14 14 12 12 15 13 12 12 13 13 10 10 12 13 11 10 10 8 9 9 9 8 9 8 8 9 8 8 8 7 6
4 4 7 9 6 3 3 3 3 3 7 9 3 5 6 7 4 6 5 5 6 7 6 6 5 6 6 5 5 4 3 2 4 5 7 8 9 9 8 4 4 6 8 7 9 11 12 13 12 11 11 12 16 15 13 12 13 14 14 13 13 12 12 11 11 9 9 7 9 9 7 9 8 9 9 8 2 2 5 6 7 8 8 8 7 7
4 4 8 7 2 0 2 3 4 4 3 4 1 3 4 4 2 5 8 5 8 2 5 5 3 7 5 4 5 4 6 6 6 5 5 6 8 10 11 9 6 4 10 10 11 12 11 13 14 11 10 10 9 12 11 13 15 13 13 13 13 13 13 12 11 11 10 14 15 13 12 11 8 7 3 2 3 4 4 7 8 8 8 8 8 8
6 9 3 3 3 2 4 3 3 3 6 2 2 3 2 2 3 2 4 5 4 7 4 7 8 6 6 8 10 13 13 16 14 16 18 16 10 5 9 12 8 5 11 12 11 10 10 10 13 15 15 12 12 13 15 15 14 12 16 14 14 12 13 12 13 11 5 8 8 7 4 4 6 4 5 3 4 6 6 5 7 10 9 9 9 9
7 8 4 3 4 2 2 5 4 2 2 3 4 4 4 3 3 5 5 8 7 7 4 8 6 4 6 7 11 10 12 13 11 14 14 13 14 8 3 9 10 1 10 15 14 15 15 15 11 6 5 8 10 13 14 15 15 12 11 11 12 10 11 11 11 10 8 9 12 11 9 8 8 7 7 8 10 10 10 11 11 9 9 10 10 9
4 4 2 3 4 4 2 4 4 3 3 0 3 2 3 1 4 5 6 6 4 1 5 3 1 5 6 7 10 8 11 10 11 15 13 12 13 13 8 2 1 3 3 4 3 4 7 8 8 8 9 5 3 1 1 4 6 8 10 11 12 11 10 10 10 9 8 8 10 14 13 12 12 11 9 9 9 9 9 8 4 7 8 8 9 9
2 3 4 3 3 3 2 5 3 5 4 2 3 0 2 4 4 2 2 1 4 3 6 2 2 2 3 5 4 6 10 9 13 15 14 12 13 13 11 10 10 8 8 7 9 8 7 4 5 7 7 7 4 2 2 2 4 8 10 10 10 8 9 9 9 10 10 9 6 8 10 10 10 10 9 7 3 3 4 5 6 5 6 8 9 10
1 4 0 0 3 4 6 5 4 3 3 3 4 3 2 1 0 2 1 4 3 1 7 7 3 1 1 2 5 7 10 10 12 13 13 13 12 13 12 12 13 14 14 11 9 10 10 10 9 7 5 3 7 5 4 2 1 3 4 6 6 8 8 9 11 11 10 9 8 5 6 7 5 3 2 4 2 2 2 4 3 4 5 7 9 9
2 3 2 3 1 2 4 5 3 5 1 3 3 1 1 1 1 0 1 1 2 2 4 6 1 1 2 5 7 6 6 10 11 12 12 14 12 11 10 10 13 14 14 15 14 12 11 10 11 10 9 8 6 4 6 5 3 3 4 7 9 8 8 9 10 10 10 11 10 8 6 8 6 4 4 4 4 6 5 5 4 3 4 6 8 9
3 5 6 2 1 0 3 5 2 1 4 1 2 0 3 4 3 3 0 1 2 0 5 7 3 4 1 5 6 5 4 5 11 9 10 14 11 9 8 10 12 11 10 11 11 11 9 8 9 11 12 9 8 7 4 4 5 3 5 7 10 6 6 6 9 10 10 8 8 9 9 9 8 7 6 4 3 3 3 7 8 6 5 6 8 7
7 3 1 2 2 1 2 4 3 1 3 1 0 1 2 3 7 3 4 3 2 2 2 2 1 4 1 2 4 4 4 8 6 10 10 13 9 10 5 8 12 10 6 7 9 11 13 13 11 8 8 9 8 7 8 10 5 1 5 8 10 7 5 3 3 4 3 4 5 6 8 10 9 10 9 9 7 5 3 1 5 9 8 6 6 6
4 3 3 6 4 6 2 4 5 6 7 5 3 5 2 2 4 1 6 1 0 4 2 0 3 4 8 2 5 7 8 8 8 9 10 13 5 3 7 11 11 11 10 8 8 9 12 12 12 9 5 5 7 8 5 3 5 10 10 6 2 6 7 7 7 7 4 2 3 4 6 5 6 6 5 5 7 8 6 5 5 3 5 7 10 7
5 3 4 7 2 3 2 3 4 6 4 3 2 3 3 1 1 0 2 1 3 5 6 3 3 4 5 3 8 6 7 6 10 13 13 13 4 8 14 12 12 12 9 7 3 8 10 9 8 4 3 5 7 6 6 4 1 1 4 7 5 4 4 5 4 4 5 3 4 4 6 6 6 6 6 6 6 5 7 8 6 1 3 8 10 8
2 3 3 4 2 6 5 4 2 2 3 3 2 2 5 4 2 1 1 1 1 4 7 4 2 2 4 2 6 5 7 8 7 8 9 9 1 6 13 13 13 11 7 5 6 8 9 7 4 4 7 5 4 5 5 3 3 5 8 9 6 4 6 8 9 9 9 8 7 6 5 7 7 8 8 7 7 8 8 8 8 5 2 6 6 7
1 2 4 1 2 3 5 5 3 2 2 2 2 4 5 1 5 1 4 4 2 1 4 5 1 2 7 3 4 5 5 8 8 8 9 6 10 12 13 12 10 10 10 10 12 13 13 10 10 10 8 8 5 3 1 2 3 3 9 9 6 4 6 4 5 6 9 9 8 8 8 8 8 7 6 6 6 7 8 9 10 9 6 9 9 8
3 0 6 9 5 4 5 7 4 3 1 4 2 1 3 3 6 2 1 0 3 2 1 2 3 3 3 3 9 7 4 5 9 8 5 9 10 13 13 12 10 8 9 10 12 12 14 14 14 12 12 11 9 4 1 3 7 11 14 12 8 4 6 7 3 5 4 3 5 9 11 10 8 7 9 9 11 11 8 7 9 11 13 14 12 10
2 4 3 5 7 4 5 6 1 4 1 1 1 4 3 2 5 3 2 1 1 2 1 4 3 1 1 0 7 9 8 8 10 9 8 9 10 12 10 9 9 9 9 11 12 12 13 12 13 13 11 10 10 9 7 4 2 7 10 9 7 5 7 6 3 5 5 6 7 7 8 8 9 9 9 8 9 10 9 4 2 2 6 10 12 9
3 2 1 2 3 5 10 5 3 6 6 1 3 1 2 0 0 2 2 0 2 0 3 2 3 3 2 1 3 7 9 8 4 7 10 11 11 10 10 10 11 11 12 12 12 12 12 11 11 11 9 9 9 9 9 10 7 4 7 6 5 6 4 4 3 3 4 6 6 6 7 7 8 9 11 11 8 9 9 9 9 9 11 10 7 6
1 2 2 3 4 5 4 6 2 6 8 2 3 3 1 3 0 2 1 2 4 1 2 0 1 1 4 3 5 5 8 8 7 9 10 10 10 8 8 9 10 10 10 11 11 10 9 9 9 10 9 10 10 10 9 9 8 9 7 8 9 6 3 4 4 3 5 6 6 6 4 6 8 9 8 7 5 7 10 11 11 11 10 11 9 10
0 1 1 3 5 3 3 4 3 2 2 6 7 4 5 1 1 2 1 1 3 3 2 3 1 2 2 3 5 7 6 6 7 6 6 8 9 9 8 8 8 9 9 9 9 10 11 10 10 10 9 9 9 9 10 10 9 8 7 8 8 8 9 5 4 4 6 5 5 5 7 7 5 7 7 5 4 4 5 6 7 9 10 9 10 9
1 1 1 3 4 5 1 3 7 5 1 2 1 2 3 2 1 1 1 2 1 3 3 5 2 2 2 2 5 6 5 5 6 4 4 5 7 7 7 8 8 8 7 7 7 7 8 9 10 10 11 10 11 12 12 12 10 11 10 9 9 10 8 7 7 6 6 6 6 5 6 6 5 6 5 7 6 6 6 7 7 8 8 10 12 10
2 2 2 0 0 2 4 8 9 5 1 5 5 4 1 1 3 3 2 2 2 1 3 4 5 1 3 2 2 4 5 4 3 3 5 5 5 5 6 6 6 7 7 7 6 6 6 6 7 9 11 11 10 10 11 10 10 9 9 9 8 9 10 8 7 6 6 6 5 7 7 6 6 6 7 8 7 8 8 8 8 6 7 8 9 8
3 3 2 2 1 2 4 6 5 8 4 5 4 4 4 3 3 3 1 3 4 2 3 0 2 2 1 2 2 3 4 4 4 4 5 5 4 5 7 7 8 8 7 7 6 6 7 6 6 8 9 11 12 11 11 10 10 10 9 9 9 9 10 10 9 8 8 7 7 6 5 4 4 5 6 7 7 8 9 8 8 7 7 8 7 8
1 1 2 1 1 1 2 3 6 6 5 2 1 4 3 3 2 1 2 2 4 1 2 6 5 4 2 1 2 4 5 7 7 8 5 5 4 4 6 5 5 6 7 8 7 8 9 9 9 8 7 7 9 9 10 10 10 11 10 9 10 9 9 9 9 10 9 7 8 8 6 6 6 5 5 6 6 7 7 7 8 8 10 10 10 9
4 1 1 1 2 2 0 1 2 3 3 4 1 4 5 6 5 2 1 2 2 2 3 2 3 3 3 1 2 3 4 6 7 6 7 5 4 7 7 7 7 7 7 8 9 9 8 6 6 7 7 6 6 8 8 9 9 9 10 10 8 9 10 10 10 11 10 8 7 7 7 7 5 6 7 7 7 8 8 8 8 9 9 9 10 10
1 2 2 1 4 5 2 3 3 1 2 3 4 4 4 4 4 4 4 4 2 1 4 2 4 5 1 4 3 5 3 4 6 7 6 5 5 6 6 6 6 6 8 9 8 8 8 8 9 9 8 7 7 7 7 8 9 8 9 11 10 9 9 9 9 11 11 9 8 7 7 6 5 5 6 7 8 8 8 8 10 10 10 9 9 9
3 4 3 6 4 3 3 2 2 2 1 1 2 3 4 4 3 6 2 2 1 6 2 2 4 4 1 2 3 3 4 4 4 4 4 3 4 4 4 5 6 7 6 6 7 8 9 9 9 9 8 8 8 8 8 7 8 8 8 9 8 8 8 8 9 9 10 10 9 7 7 7 6 5 5 5 6 7 8 8 8 8 9 8 9 10
4 2 0 3 1 1 3 3 4 1 1 0 0 2 3 4 6 5 1 0 3 2 5 2 3 3 3 3 3 3 3 3 3 3 3 3 3 4 5 6 6 6 7 8 8 8 8 9 8 9 9 8 7 8 8 8 7 7 7 7 8 8 8 8 8 9 9 9 9 8 7 6 5 5 4 4 5 6 7 7 7 7 7 7 8 9
5 1 1 2 2 1 1 0 3 4 2 2 2 2 3 4 3 4 3 2 5 4 4 6 4 3 3 3 4 2 2 2 1 1 3 5 3 3 4 4 4 5 6 7 8 8 8 8 8 8 8 9 10 10 8 7 7 8 8 8 8 8 8 8 8 8 8 8 9 8 8 7 6 5 5 5 5 5 6 6 6 6 7 7 9 9
3 2 5 2 1 1 2 4 2 1 1 1 3 2 2 3 3 2 2 1 5 5 3 4 3 1 4 4 2 1 0 0 2 5 4 2 3 3 2 3 3 4 5 5 6 7 7 7 7 7 7 9 10 11 10 8 7 7 7 7 7 8 8 7 8 8 8 8 8 8 8 7 6 6 5 5 5 5 6 7 5 4 5 7 8 9
3 2 1 2 1 1 3 4 4 3 1 1 1 3 0 2 2 1 2 2 3 3 2 3 1 2 4 2 1 0 2 2 2 2 3 2 1 1 1 2 3 3 3 5 6 6 7 7 6 6 8 10 10 10 9 9 8 7 6 6 7 7 8 7 7 8 8 8 9 8 8 7 7 6 6 6 6 6 6 7 6 6 4 5 6 8
3 5 3 1 1 2 3 6 3 1 2 3 3 6 5 1 2 1 0 1 1 4 4 2 1 2 3 2 3 0 1 1 2 1 2 1 1 1 1 2 3 3 3 4 4 5 6 7 6 5 7 8 9 10 10 9 8 8 8 7 7 7 7 8 7 8 9 9 9 9 8 7 7 7 7 7 7 7 7 8 8 7 6 6 6 7
4 6 3 3 1 1 0 4 2 1 2 1 4 8 7 5 6 4 2 4 2 3 1 2 1 1 3 3 2 1 1 1 1 3 3 3 2 2 2 3 3 3 3 4 4 4 4 5 4 5 6 6 7 8 8 7 8 8 8 7 6 6 6 8 8 8 8 9 9 9 8 7 6 7 7 7 7 7 7 7 8 8 8 8 7 7
4 3 1 2 1 0 2 3 2 2 4 3 1 5 5 7 7 6 4 4 2 3 1 3 4 5 3 3 3 3 3 2 3 6 3 3 3 2 2 2 2 2 4 4 4 3 3 4 4 3 6 7 7 7 6 7 7 8 8 7 7 5 6 7 8 8 8 9 9 8 8 9 9 9 8 7 7 8 8 8 8 9 8 8 9 9
5 4 2 1 2 2 2 1 0 2 3 1 0 2 2 3 2 2 2 2 2 3 5 4 4 4 4 3 3 2 2 0 4 4 4 4 4 2 1 2 3 3 4 4 4 3 3 4 4 4 5 5 6 6 6 7 7 7 8 8 7 6 5 6 7 8 8 9 9 9 9 9 10 9 9 8 8 7 8 8 8 9 9 9 9 9
5 3 2 2 1 2 2 4 3 1 2 2 1 1 5 5 4 5 2 2 2 3 5 6 4 3 2 1 1 3 2 5 2 4 3 3 4 3 2 3 3 4 4 5 3 3 3 4 5 6 4 5 6 7 7 7 7 7 7 7 6 6 6 6 7 8 9 9 9 10 10 10 10 10 10 9 9 9 8 8 9 9 8 10 11 11
6 4 3 1 2 5 4 1 1 1 2 6 7 5 1 3 7 5 6 2 3 2 4 8 6 4 2 0 1 1 3 6 6 4 5 4 4 3 4 4 4 4 5 5 3 3 4 4 5 5 4 4 6 6 6 6 7 7 7 7 7 7 6 5 7 7 8 9 10 10 9 9 9 10 10 10 10 11 10 9 8 9 8 9 11 12
1 2 3 2 3 2 1 3 3 3 5 5 6 5 3 2 8 4 3 2 3 2 4 7 6 4 4 3 1 3 6 4 2 5 8 5 5 4 3 5 3 3 5 3 2 3 4 5 5 6 5 5 7 8 6 5 6 6 7 8 8 7 8 8 8 8 9 9 9 10 9 9 9 9 10 11 11 11 11 11 10 9 9 10 10 12
2 1 3 1 3 2 2 2 2 2 1 2 4 3 2 4 6 4 1 3 4 1 3 6 6 5 4 3 4 4 4 2 2 5 5 4 4 6 2 4 4 4 4 3 2 2 4 4 5 7 7 7 7 8 7 6 5 5 6 7 7 8 10 10 10 9 8 9 9 9 9 9 10 10 10 11 12 11 11 10 10 10 10 10 10 11
1 2 2 5 3 2 5 1 1 2 3 2 3 3 3 1 3 2 3 3 3 2 3 6 6 5 4 4 2 2 2 3 3 5 4 3 3 5 3 1 2 3 3 3 1 3 3 5 5 6 7 6 6 7 6 5 5 5 5 6 7 9 10 11 10 9 9 9 10 10 10 9 9 11 12 11 11 11 11 10 11 11 11 12 11 12
1 0 1 2 1 1 2 4 1 2 4 1 1 5 4 1 1 3 4 3 3 2 3 6 7 4 4 3 3 2 2 3 4 3 1 1 1 3 3 2 3 4 4 3 4 1 3 4 5 6 7 7 7 7 6 6 6 6 6 6 7 8 9 10 10 10 10 11 11 11 11 11 10 9 10 11 11 11 12 11 12 12 13 12 12 14
2 1 1 0 1 2 3 2 1 0 2 4 5 1 2 2 5 5 2 1 2 4 6 3 5 4 4 1 3 2 3 3 1 1 1 1 1 3 3 3 3 3 4 3 3 2 1 4 5 7 7 7 6 6 6 6 7 8 8 9 9 9 10 10 10 10 11 11 11 10 11 10 11 10 8 9 11 12 14 13 14 14 14 14 14 15
1 1 1 1 1 1 0 1 1 4 6 6 8 5 5 6 5 5 5 3 1 4 6 5 3 4 5 4 1 1 1 2 3 0 1 2 3 4 4 2 2 3 4 4 4 3 1 4 4 5 6 6 6 6 5 6 7 8 10 11 10 9 10 10 10 11 12 11 11 11 11 11 11 11 10 12 12 12 13 13 13 13 12 13 13 12
4 2 5 2 3 2 2 4 5 4 7 6 7 5 5 6 6 8 6 5 4 2 3 6 4 4 4 3 0 1 1 2 2 2 0 1 1 1 2 1 1 3 4 4 4 4 3 4 5 5 6 7 7 6 5 4 5 7 10 10 9 11 11 11 11 10 11 12 12 11 12 13 12 12 11 10 10 11 12 12 12 13 12 12 12 12
1 3 2 3 2 1 2 4 2 1 2 2 3 3 7 5 4 5 6 4 3 4 6 5 5 4 2 2 0 0 2 1 1 1 1 2 2 2 1 2 4 4 4 5 6 6 4 5 5 5 5 7 7 6 5 6 4 6 9 9 8 10 11 11 11 11 11 11 9 10 12 14 13 11 10 11 9 10 10 12 13 12 12 11 11 11
0 1 1 1 1 2 1 0 4 7 4 4 5 3 2 4 7 6 5 4 4 4 4 4 6 4 2 2 2 1 2 0 1 0 0 1 2 2 1 1 3 3 4 4 5 4 4 4 5 6 5 5 6 6 6 5 6 6 7 8 8 10 11 11 11 12 12 11 10 10 11 13 12 14 13 10 10 10 10 11 11 12 13 12 12 12
2 1 1 1 2 2 2 6 8 4 2 4 8 7 6 5 5 5 5 5 5 6 6 6 5 3 4 2 4 3 1 1 1 1 0 1 1 1 1 1 2 4 5 4 5 3 3 4 5 5 5 5 6 6 6 6 7 7 8 8 9 10 10 10 11 12 13 13 10 10 12 13 16 15 12 13 12 12 13 12 12 13 13 13 13 13
3 3 2 3 2 3 3 1 2 3 2 4 5 5 7 9 7 5 4 5 4 5 4 4 4 5 5 4 4 4 2 1 2 2 0 2 2 2 1 2 3 4 4 4 4 4 3 3 4 5 3 5 5 5 5 6 7 7 8 8 9 9 10 10 11 12 12 11 9 11 11 12 12 13 13 13 14 13 12 13 15 15 16 16 14 13
3 4 2 1 0 2 3 2 3 3 2 4 8 9 7 6 8 7 5 5 5 4 4 5 4 2 3 4 5 4 4 3 3 3 0 1 2 3 3 4 4 4 5 4 3 3 3 3 3 4 3 4 4 4 4 6 6 6 6 6 7 8 9 10 10 11 11 10 9 11 11 10 11 12 11 11 11 13 16 17 18 17 16 16 21 21
3 5 5 4 5 3 5 6 5 4 4 5 8 9 7 6 7 8 7 7 6 6 6 6 5 3 3 3 4 4 4 4 3 3 1 0 2 3 4 4 4 5 4 4 3 4 4 4 3 4 3 4 4 4 4 5 7 7 8 6 7 7 8 8 9 9 9 9 9 11 11 10 10 11 11 11 11 12 13 16 17 17 19 21 22 23
Wind_Direction
115 67 340 264 250 225 240 256 259 261 245 277 295 299 297 319 300 286 310 312 344 316 185 170 206 233 266 263 270 288 292 289 285 282 287 295 287 271 187 165 198 204 206 209 199 195 179 163 163 156 158 161 158 158 164 163 167 168 167 163 172 175 171 168 182 192 155 152 137 127 156 195 207 212 214 215 208 199 200 195 192 191 195 197 196 193
68 27 287 232 222 235 272 292 313 322 314 293 289 324 310 322 291 288 297 317 333 27 290 340 352 263 234 249 258 251 240 278 286 294 291 285 283 270 258 178 182 207 236 203 164 173 159 144 153 154 160 160 159 173 169 171 170 168 169 173 172 173 178 178 179 188 181 165 170 176 184 176 200 214 217 218 212 204 198 198 195 195 196 199 199 194
13 302 257 264 248 254 275 298 299 271 279 279 317 311 324 290 239 281 305 323 338 8 309 310 332 297 299 292 286 303 296 242 250 268 272 273 276 285 281 255 189 178 210 202 181 170 171 165 163 166 171 179 174 166 168 166 165 173 177 179 173 177 177 185 185 182 180 155 144 149 168 179 194 211 217 227 221 182 185 204 203 197 200 201 202 199
346 294 250 249 253 307 310 303 296 303 292 264 340 348 284 262 21 323 305 344 340 37 296 298 309 298 314 318 328 344 11 333 344 325 300 278 276 279 276 269 257 187 182 189 177 177 173 169 168 166 171 175 168 164 164 172 175 176 180 179 180 180 180 179 189 193 185 168 168 170 174 171 175 196 194 201 157 174 173 202 206 206 201 200 200 200
218 241 238 212 244 235 270 281 291 294 296 279 233 244 247 301 288 200 275 329 324 339 3 353 351 337 354 15 4 351 3 27 8 18 11 357 334 281 283 288 271 212 170 176 173 168 158 162 176 180 176 169 172 176 175 176 178 182 182 181 180 179 182 187 182 182 199 174 152 147 155 145 131 122 147 154 210 205 197 192 203 210 201 198 198 201
290 264 236 263 271 268 252 296 270 140 292 318 263 221 219 228 330 338 350 10 15 337 334 41 0 319 317 19 18 4 24 30 10 19 358 357 356 336 310 283 290 304 172 164 168 171 175 177 168 157 157 181 184 183 184 181 181 174 174 174 178 181 184 187 189 168 173 194 164 159 162 167 169 180 171 193 205 207 204 203 205 201 196 198 199 200
219 272 157 205 227 251 260 253 263 197 223 79 271 224 255 296 21 20 6 32 353 343 283 65 81 269 328 32 14 10 46 25 16 14 350 1 3 350 330 325 250 125 96 59 91 129 147 141 151 166 167 172 212 249 160 170 173 171 172 176 179 180 185 184 180 177 177 203 187 172 172 171 177 183 199 205 212 215 222 226 193 196 199 200 200 205
349 320 332 351 315 288 277 282 246 142 115 247 238 51 32 35 36 357 13 85 239 274 292 10 139 217 303 346 359 328 45 13 19 12 358 4 10 5 355 17 31 59 97 109 112 103 97 92 133 142 140 126 122 125 116 160 169 175 175 175 180 182 183 183 178 184 184 185 208 183 168 166 171 183 196 202 227 274 271 245 230 197 193 198 205 207
128 304 210 279 265 242 238 209 227 145 149 212 252 210 253 106 178 332 357 292 247 278 299 310 344 40 311 278 340 358 43 1 4 351 351 359 13 4 13 21 43 47 47 52 57 77 85 88 80 65 53 67 99 104 112 103 97 138 153 168 179 185 186 184 182 183 181 174 174 182 155 145 134 138 86 31 25 311 294 278 269 225 207 203 211 213
275 224 220 227 164 338 259 264 206 158 333 277 241 59 137 104 44 291 219 306 318 102 267 284 305 160 275 322 355 339 41 6 343 331 335 337 15 15 8 25 39 43 46 45 45 47 56 61 68 74 68 44 36 68 97 110 111 130 150 169 182 188 188 188 185 182 179 170 162 156 144 124 115 96 84 67 25 346 324 285 270 254 221 213 216 215
242 257 223 210 191 222 267 281 248 284 228 277 60 14 0 34 10 350 69 128 66 307 259 252 305 134 349 8 346 7 1 4 341 315 340 331 347 26 10 33 53 36 39 43 32 41 49 58 65 72 76 68 42 22 50 111 138 152 161 166 178 176 166 178 181 179 179 171 167 161 158 155 152 136 127 114 93 73 10 308 290 260 234 220 221 213
328 330 32 271 84 26 20 1 357 351 297 150 99 125 38 340 10 24 343 30 156 273 256 347 109 66 132 340 22 347 356 50 346 317 331 309 290 34 324 59 68 66 33 56 45 40 43 39 42 57 77 87 84 57 16 357 336 237 190 175 166 156 142 113 114 133 132 138 155 163 166 168 175 167 164 163 164 134 120 79 318 307 304 270 239 221
341 348 295 336 350 58 353 55 325 348 13 51 87 53 115 272 32 334 11 4 183 193 251 53 339 42 44 40 324 6 3 23 333 291 288 294 309 93 65 59 63 70 66 50 53 58 60 49 26 14 56 91 101 108 96 50 354 339 339 338 119 80 50 42 21 9 6 75 125 150 151 133 117 132 158 172 148 144 132 100 61 353 280 287 286 252
287 278 4 335 354 26 38 72 328 356 346 15 126 126 77 55 39 266 271 224 312 292 271 293 46 87 152 118 16 9 7 349 317 306 307 300 296 40 56 50 56 59 43 36 22 74 69 65 72 331 324 66 82 86 117 144 118 3 314 325 1 36 134 145 160 185 201 202 172 175 163 152 148 149 150 149 149 167 144 132 124 139 249 222 235 266
44 349 317 354 338 330 1 0 309 199 253 256 148 116 169 141 162 215 206 133 210 228 286 306 91 192 128 351 345 16 17 351 300 289 292 285 291 47 55 55 49 54 57 72 54 52 67 75 92 63 341 359 45 86 108 107 46 7 351 335 339 294 229 196 190 183 191 189 183 187 185 171 175 175 176 177 162 155 145 136 138 146 185 280 266 228
243 214 250 278 255 318 1 330 322 4 2 291 130 92 62 249 146 150 197 165 212 343 335 8 87 33 102 170 14 15 21 295 281 291 281 11 25 39 45 43 41 43 41 31 31 37 37 32 25 32 16 338 10 1 27 118 109 239 253 244 225 235 293 275 203 209 200 194 186 180 186 197 191 188 183 170 162 164 165 159 156 158 177 243 254 259
17 320 304 339 357 36 3 343 345 39 123 271 52 315 222 196 110 106 13 286 95 58 7 81 71 360 140 128 357 2 8 290 274 277 338 29 33 40 37 32 33 39 45 41 40 38 34 32 36 35 26 359 340 327 234 170 163 205 235 240 236 211 247 249 215 226 243 245 217 201 194 196 200 203 199 190 185 175 183 182 174 174 193 211 215 224
149 247 339 26 344 325 352 323 227 59 261 72 50 246 291 106 121 129 196 308 95 121 347 33 60 356 18 64 315 352 356 355 356 6 19 26 33 44 39 30 28 32 35 38 41 35 34 33 33 32 33 28 16 9 350 309 201 202 221 234 253 261 253 251 220 214 210 210 216 223 221 213 203 207 219 214 193 179 171 185 245 214 203 212 219 221
108 357 290 7 283 304 337 17 5 338 6 136 193 265 95 276 285 315 92 13 99 165 115 124 96 76 23 189 319 353 342 353 17 9 26 31 35 36 34 33 39 42 39 36 36 31 26 27 26 24 23 19 14 13 18 21 14 333 297 279 225 228 252 279 282 267 222 202 220 219 220 216 214 217 221 221 196 173 175 182 188 200 213 216 210 222
71 152 303 326 20 309 339 33 26 308 323 353 14 20 7 100 152 86 201 180 110 196 75 88 72 56 2 0 348 2 324 354 17 24 19 19 23 30 30 33 41 43 43 39 35 34 31 28 24 20 15 14 9 5 9 9 8 10 353 325 314 297 249 241 256 252 254 232 204 212 224 226 215 215 229 239 214 183 188 194 198 207 216 221 215 209
103 109 221 283 326 43 14 358 329 284 318 341 24 350 358 355 231 109 24 74 154 163 145 155 22 324 335 326 316 337 355 1 18 17 13 15 13 16 28 37 40 43 44 40 35 27 22 19 15 14 10 6 5 7 7 5 2 355 354 355 348 327 310 294 253 235 237 240 245 228 221 222 225 239 232 235 238 224 219 221 216 215 214 221 225 210
78 37 171 304 22 54 120 297 328 339 16 102 131 28 268 348 50 74 274 357 37 95 157 119 194 207 254 322 312 334 342 359 19 12 3 16 20 19 24 34 38 42 42 42 39 34 24 15 9 7 8 5 6 5 2 355 355 356 354 349 344 345 351 340 320 284 266 254 241 236 249 251 233 223 237 249 231 224 225 228 231 228 222 221 229 221
136 170 93 24 313 54 301 299 301 343 37 101 97 357 24 138 106 95 118 243 45 324 96 124 128 83 347 299 302 321 321 332 353 11 9 6 12 20 31 41 44 40 36 34 37 37 32 24 15 8 4 2 3 358 354 352 351 347 345 346 345 346 337 337 326 317 292 269 252 240 231 223 218 217 219 219 219 226 229 229 232 230 233 240 244 238
119 69 53 36 24 302 282 268 287 4 21 20 2 6 29 0 266 170 174 183 122 316 70 25 73 142 79 29 344 302 310 325 337 3 8 4 4 20 31 32 31 25 21 21 25 33 32 26 20 17 9 2 358 354 351 345 341 342 343 342 341 342 336 333 332 330 327 311 286 270 266 244 222 219 225 229 225 227 226 223 227 223 227 237 245 251
69 313 110 117 82 292 328 348 354 343 37 63 319 311 307 326 2 256 95 57 81 258 182 128 167 170 148 26 324 319 340 348 346 338 355 359 6 28 36 38 34 23 19 17 20 22 17 17 17 14 9 5 356 348 346 344 338 336 337 338 339 335 334 332 331 330 330 328 315 303 291 284 287 273 256 251 251 250 248 238 236 233 227 224 223 227
82 286 95 120 143 141 334 23 318 320 311 292 307 330 345 21 345 22 186 18 94 303 95 86 120 116 158 79 331 319 337 341 335 332 335 352 12 23 30 27 24 21 10 10 10 11 14 10 2 4 6 2 356 350 343 339 334 331 332 333 334 334 335 336 336 332 328 331 330 314 299 292 277 264 263 260 254 249 246 240 248 249 241 231 227 224
100 23 71 147 140 152 191 205 248 119 0 49 304 359 337 349 14 92 93 84 142 177 62 315 143 137 13 345 331 323 325 319 317 329 334 346 19 31 30 26 14 9 10 6 358 352 353 359 358 356 353 352 350 348 342 335 332 330 329 327 330 333 334 334 338 336 332 329 331 329 319 297 280 270 255 248 247 245 238 225 216 224 236 236 234 233
69 61 23 79 78 167 186 197 227 156 156 264 38 342 354 23 18 60 88 188 177 91 27 309 100 113 231 267 281 293 308 306 309 312 332 13 43 36 30 24 5 4 359 354 352 350 349 346 345 347 343 340 342 339 338 335 327 325 322 320 322 330 332 331 335 334 330 325 320 318 313 312 300 287 271 265 259 250 244 235 224 221 223 226 231 233
127 109 318 78 91 184 201 241 242 205 169 212 65 16 14 26 53 72 36 287 106 127 175 211 112 122 228 232 239 251 252 269 295 300 318 23 42 31 31 24 8 356 348 350 345 344 342 341 339 336 336 334 333 333 332 330 326 323 325 320 322 326 325 324 325 325 323 319 314 306 301 299 297 290 289 279 273 271 261 250 241 236 229 225 232 235
88 30 182 114 131 182 274 123 59 56 10 17 356 353 23 62 103 105 83 30 94 128 144 151 148 168 211 222 228 239 240 221 256 284 37 49 30 27 34 18 5 348 343 337 333 329 329 331 329 327 327 334 337 333 326 323 323 324 324 322 320 322 319 325 322 320 318 314 311 308 304 301 299 297 297 300 293 286 281 273 260 248 244 239 236 239
101 243 157 109 87 267 256 278 312 55 61 53 320 342 33 76 69 70 88 43 75 68 78 114 111 245 258 196 202 267 272 227 34 34 57 68 47 27 31 1 335 330 323 322 319 322 323 321 319 319 326 334 338 333 328 319 314 313 313 314 317 319 321 326 325 323 319 316 313 310 305 303 298 298 298 292 292 291 293 289 281 257 242 245 245 243
77 214 80 95 109 285 231 231 239 236 106 58 304 301 272 74 81 265 96 200 115 161 126 101 62 262 275 263 257 35 36 40 52 24 72 81 57 46 11 327 302 302 306 307 309 322 327 324 323 329 338 337 334 331 327 324 321 317 314 318 319 319 322 325 323 321 319 317 317 314 311 304 297 297 295 298 293 291 289 292 292 285 264 244 240 242
150 134 154 133 115 259 217 186 203 296 318 325 269 227 206 193 168 134 309 335 218 145 111 141 229 216 212 168 121 278 335 285 52 127 114 115 248 207 225 262 267 275 287 290 303 319 325 323 324 328 335 337 333 330 325 324 325 331 329 319 312 315 318 319 320 320 319 318 318 316 314 313 314 315 319 318 318 315 316 310 305 300 291 271 252 244
119 137 175 164 121 262 175 153 140 67 0 246 227 176 160 169 176 148 208 214 214 133 180 188 216 171 107 117 133 197 251 245 145 161 162 171 200 227 247 241 250 259 273 279 284 300 306 308 314 322 331 335 329 323 319 320 327 325 317 308 305 309 314 319 323 323 319 319 320 320 321 328 339 339 334 332 330 328 324 321 312 307 303 295 279 259
150 134 183 177 100 83 83 72 59 261 237 243 277 163 175 162 165 169 188 199 220 213 339 82 95 112 157 170 179 214 221 245 144 163 200 214 195 209 233 252 274 276 282 282 295 304 302 306 296 306 327 336 333 322 320 319 321 320 316 319 314 311 318 320 320 322 322 321 321 323 327 330 328 323 320 317 316 314 311 307 305 303 301 300 295 287
150 166 173 169 137 65 61 125 241 256 251 319 331 177 175 115 94 67 27 354 251 214 176 134 151 157 168 190 226 236 242 153 148 181 195 214 216 208 213 275 270 270 284 291 290 294 306 314 304 307 309 318 321 321 321 319 319 322 322 318 322 322 314 312 316 317 319 318 319 319 320 319 317 312 311 309 308 303 300 300 296 297 298 293 288 282
151 112 119 268 171 169 186 152 209 309 359 327 2 175 149 168 182 161 172 250 224 207 169 152 170 172 173 213 283 330 38 73 94 261 246 233 243 224 220 261 242 259 267 283 288 288 288 300 308 298 293 315 320 318 320 315 318 320 318 321 326 323 318 320 319 318 316 314 313 313 312 312 308 306 302 302 298 293 289 288 288 285 287 288 288 283
149 195 234 125 273 119 126 67 12 3 284 267 236 271 259 177 160 173 109 251 295 264 182 136 152 174 144 171 42 29 58 63 19 314 289 276 266 284 283 260 267 263 269 276 311 290 299 308 307 304 305 318 317 315 313 314 321 325 321 325 324 324 321 320 319 315 313 309 309 305 304 301 300 297 299 296 295 293 289 282 274 275 274 274 280 281
1 113 133 160 234 97 108 137 196 176 243 210 223 232 246 162 122 108 73 255 263 207 188 137 155 180 170 147 172 73 61 56 307 261 280 283 292 276 269 285 266 256 267 280 269 293 327 326 323 315 326 331 329 324 321 317 326 326 328 328 326 324 322 320 316 316 313 310 305 302 298 296 292 290 291 292 289 290 289 285 281 275 271 266 268 270
316 104 117 190 238 207 164 138 220 195 216 260 229 258 224 130 85 64 341 274 255 223 177 137 147 172 197 186 137 89 115 47 249 265 250 263 261 278 264 295 318 299 300 322 289 284 309 322 338 332 339 334 319 316 315 323 330 326 324 323 324 328 330 325 318 311 310 307 305 301 299 297 297 292 289 287 287 285 282 281 281 274 272 270 265 266
301 334 112 205 209 229 122 224 340 316 273 242 219 238 156 117 78 99 206 235 243 218 181 145 153 181 160 159 144 65 229 196 219 246 295 305 317 322 310 290 257 252 285 290 254 291 328 327 323 314 315 306 306 310 311 323 325 320 317 323 328 332 330 323 315 313 313 311 307 305 302 301 298 296 293 287 285 285 281 278 276 276 272 271 268 263
338 69 321 59 50 321 200 117 210 229 236 193 317 143 163 89 253 214 235 199 145 202 196 162 160 200 165 161 173 178 229 250 257 272 294 292 272 270 270 300 323 337 337 286 250 313 323 317 316 315 322 316 313 313 316 327 325 314 321 326 326 323 323 324 319 313 313 312 310 308 304 301 298 292 292 293 289 287 284 281 278 274 273 268 266 264
211 102 247 303 249 53 43 85 41 73 262 153 137 71 45 131 231 207 168 215 170 174 144 177 154 193 153 161 206 198 249 287 292 305 288 280 315 327 339 11 331 324 320 298 319 323 299 313 317 318 317 314 316 313 315 332 326 322 328 329 323 323 326 324 321 317 314 310 307 304 302 301 300 300 300 296 296 294 290 286 281 277 272 267 263 261
205 89 274 276 181 151 104 147 193 211 203 187 140 176 216 196 184 174 136 144 196 151 138 156 197 188 177 143 177 288 240 246 310 295 311 336 336 327 17 14 354 338 335 293 259 279 278 293 297 305 312 316 318 310 319 332 325 321 327 322 320 325 324 323 322 319 317 313 310 310 310 312 311 307 301 296 292 287 281 280 276 271 267 263 260 258
230 155 175 168 245 131 201 215 243 218 183 193 175 200 190 194 159 174 147 172 142 182 169 141 187 213 185 153 187 163 287 236 233 220 153 321 315 359 7 333 338 327 307 303 311 304 303 292 296 305 318 326 320 316 322 321 323 319 321 316 320 326 328 324 322 319 317 316 315 317 321 319 314 308 302 300 299 296 292 286 284 281 274 261 252 248
240 176 165 89 261 306 261 203 191 116 202 216 234 180 168 191 198 148 148 167 219 184 163 158 196 203 218 131 141 305 214 250 352 341 359 346 6 335 359 356 346 334 322 333 339 339 312 310 317 318 324 325 319 321 324 316 326 327 315 311 314 324 326 322 322 322 320 316 316 323 324 319 312 305 301 299 295 291 290 292 291 284 280 273 260 251
273 125 85 142 265 67 273 342 166 197 214 197 191 205 201 189 180 170 165 167 187 177 185 188 169 189 189 145 169 205 277 293 123 337 275 312 355 332 325 293 309 300 301 329 317 334 321 330 324 323 326 329 316 329 321 314 322 316 316 317 316 326 326 323 324 325 323 323 324 328 328 325 320 317 314 311 308 301 297 291 286 285 283 275 268 259
296 201 92 221 129 140 230 222 220 219 199 188 167 169 203 221 207 185 181 182 173 185 172 193 177 175 156 162 178 171 210 180 152 202 256 280 275 253 275 280 287 310 309 307 328 342 315 319 319 318 333 327 311 332 321 323 329 324 326 323 324 328 328 325 330 329 329 327 329 330 332 328 322 318 315 317 316 311 307 299 291 288 282 278 271 262
197 101 233 176 182 270 299 263 141 120 116 203 234 216 192 180 187 201 192 177 174 161 213 212 194 179 174 202 164 162 123 219 197 196 235 287 278 274 266 260 264 272 281 329 325 321 294 278 318 326 337 328 311 324 318 320 326 324 329 324 324 329 329 327 328 330 331 330 327 329 329 325 320 318 316 314 313 305 297 298 301 296 290 281 272 264
88 205 241 85 33 301 196 208 133 104 260 223 218 220 213 198 174 177 191 188 189 197 199 184 233 247 190 177 158 154 149 185 208 187 193 231 241 255 263 258 263 281 295 303 299 333 313 305 326 329 334 329 311 313 311 324 326 327 327 318 321 327 331 328 330 334 336 334 331 329 326 319 316 317 315 313 309 308 304 294 281 275 281 286 276 258
171 211 150 164 159 236 239 234 188 158 186 217 198 210 202 176 164 166 187 193 208 202 185 160 159 179 179 198 189 150 165 173 206 183 166 256 263 242 234 240 259 280 287 294 315 344 323 310 329 349 338 322 314 305 311 330 333 333 329 321 322 328 329 328 330 333 333 334 335 330 322 319 318 318 316 313 311 306 305 308 307 292 279 268 262 261